GW0833 Weather Reports


time (UTC)temp
C
wind
direction
speed
KPH
gust
KPH
rain 1hr
cm
rain 24hr
cm
rain mn
cm
humidity
%
barometer
mb
20220813153416 17 278 3.2 12.9 0.00 0.00 0.00 79 1022.5
20220813153040 17 273 1.6 12.9 0.00 0.00 0.00 79 1021.8
20220813152409 17 249 4.8 14.5 0.00 0.00 0.00 79 1022.4
20220813151551 17 272 4.8 14.5 0.00 0.00 0.00 77 1021.9
20220813151322 18 279 3.2 16.1 0.00 0.00 0.00 77 1022.6
20220813150338 18 251 3.2 8.0 0.00 0.00 0.00 76 1022.6
20220813150016 17 244 0.0 8.0 0.00 0.00 0.00 75 1021.8
20220813145333 18 245 3.2 6.4 0.00 0.00 0.00 75 1022.2
20220813144550 18 246 0.0 8.0 0.00 0.00 0.00 74 1021.9
20220813144354 18 245 1.6 8.0 0.00 0.00 0.00 74 1022.7
20220813143410 18 245 0.0 6.4 0.00 0.00 0.00 74 1022.5
20220813143007 18 245 1.6 6.4 0.00 0.00 0.00 73 1021.7
20220813142344 18 244 3.2 8.0 0.00 0.00 0.00 72 1022.2
20220813141543 18 237 1.6 6.4 0.00 0.00 0.00 71 1021.4
20220813141315 18 238 0.0 4.8 0.00 0.00 0.00 72 1022.1
20220813140332 18 238 1.6 4.8 0.00 0.00 0.00 72 1022.0
20220813140018 18 238 0.0 4.8 0.00 0.00 0.00 72 1021.3
20220813135414 18 238 1.6 4.8 0.00 0.00 0.00 72 1021.9
20220813135332 18 238 1.6 4.8 0.00 0.00 0.00 72 1021.9
20220813134603 17 238 0.0 0.0 0.00 0.00 0.00 73 1021.5
20220813134321 17 238 0.0 0.0 0.00 0.00 0.00 73 1022.2
20220813133337 17 238 0.0 3.2 0.00 0.00 0.00 73 1022.4
20220813133005 17 238 0.0 3.2 0.00 0.00 0.00 73 1021.7
20220813132400 17 238 0.0 3.2 0.00 0.00 0.00 73 1022.5
20220813131514 17 238 0.0 4.8 0.00 0.00 0.00 74 1022.0
20220813131316 17 238 0.0 4.8 0.00 0.00 0.00 74 1022.6
20220813130354 17 238 1.6 6.4 0.00 0.00 0.00 73 1022.6
20220813130057 17 238 0.0 6.4 0.00 0.00 0.00 73 1022.0
20220813125409 17 238 1.6 6.4 0.00 0.00 0.00 73 1022.5
20220813125326 17 238 1.6 6.4 0.00 0.00 0.00 73 1022.5
20220813124555 17 237 0.0 8.0 0.00 0.00 0.00 73 1021.8
20220813124324 17 237 1.6 8.0 0.00 0.00 0.00 73 1022.4
20220813123341 17 238 3.2 6.4 0.00 0.00 0.00 72 1022.2
20220813123026 17 238 0.0 11.3 0.00 0.00 0.00 73 1021.5
20220813122319 17 238 3.2 8.0 0.00 0.00 0.00 72 1022.0
20220813121529 17 239 1.6 8.0 0.00 0.00 0.00 72 1021.5
20220813121355 17 239 1.6 6.4 0.00 0.00 0.00 72 1022.2
20220813120418 17 239 1.6 6.4 0.00 0.00 0.00 72 1022.3
20220813120042 17 239 0.0 6.4 0.00 0.00 0.00 72 1021.7
20220813115354 17 239 1.6 8.0 0.00 0.00 0.00 71 1022.4
20220813114559 17 237 3.2 11.3 0.00 0.00 0.00 71 1022.0
20220813114411 17 218 1.6 8.0 0.00 0.00 0.00 71 1022.7
20220813113319 17 219 1.6 9.7 0.00 0.00 0.00 70 1022.5
20220813113010 17 217 3.2 8.0 0.00 0.00 0.00 70 1021.8
20220813112404 17 217 3.2 8.0 0.00 0.00 0.00 70 1022.4
20220813111521 16 218 1.6 9.7 0.00 0.00 0.00 70 1021.9
20220813111319 17 219 1.6 6.4 0.00 0.00 0.00 70 1022.6
20220813110357 17 219 0.0 6.4 0.00 0.00 0.00 70 1022.5
20220813110314 17 219 0.0 6.4 0.00 0.00 0.00 70 1022.5
20220813110049 16 219 0.0 6.4 0.00 0.00 0.00 70 1021.8
20220813105351 17 219 0.0 6.4 0.00 0.00 0.00 69 1022.4
20220813104516 16 219 1.6 4.8 0.00 0.00 0.00 69 1021.7
20220813104327 17 219 1.6 6.4 0.00 0.00 0.00 69 1022.2
20220813103318 17 219 3.2 6.4 0.00 0.00 0.00 68 1022.0
20220813103011 16 219 0.0 6.4 0.00 0.00 0.00 68 1021.5
20220813102403 17 219 1.6 6.4 0.00 0.00 0.00 68 1022.1
20220813102320 17 219 1.6 6.4 0.00 0.00 0.00 68 1022.1
20220813101520 17 219 0.0 8.0 0.00 0.00 0.00 67 1021.6
20220813101337 17 219 1.6 8.0 0.00 0.00 0.00 67 1022.0
20220813100333 17 219 1.6 4.8 0.00 0.00 0.00 67 1022.1
20220813100049 17 219 0.0 4.8 0.00 0.00 0.00 67 1021.6
20220813095327 17 219 1.6 6.4 0.00 0.00 0.00 66 1022.1
20220813094607 17 219 1.6 6.4 0.00 0.00 0.00 66 1021.5
20220813094353 17 218 3.2 6.4 0.00 0.00 0.00 66 1022.0
20220813093408 17 219 1.6 8.0 0.00 0.00 0.00 66 1022.1
20220813093043 17 219 0.0 6.4 0.00 0.00 0.00 66 1021.6
20220813092323 17 219 1.6 6.4 0.00 0.00 0.00 65 1022.2
20220813091536 17 219 1.6 8.0 0.00 0.00 0.00 65 1021.8
20220813091339 17 219 3.2 11.3 0.00 0.00 0.00 65 1022.4
20220813090319 17 245 3.2 8.0 0.00 0.00 0.00 66 1022.4
20220813090104 16 246 3.2 8.0 0.00 0.00 0.00 66 1021.7
20220813085341 17 248 1.6 6.4 0.00 0.00 0.00 66 1022.3
20220813084532 16 248 3.2 6.4 0.00 0.00 0.00 66 1021.6
20220813084337 17 248 1.6 6.4 0.00 0.00 0.00 66 1022.2
20220813083334 17 248 3.2 6.4 0.00 0.00 0.00 66 1022.2
20220813083031 16 248 0.0 4.8 0.00 0.00 0.00 66 1021.7
20220813082330 17 248 1.6 6.4 0.00 0.00 0.00 65 1022.1
20220813081528 16 248 1.6 8.0 0.00 0.00 0.00 64 1021.5
20220813081328 17 248 3.2 6.4 0.00 0.00 0.00 64 1022.0
20220813080315 17 248 1.6 6.4 0.00 0.00 0.00 63 1022.0
20220813080023 17 248 3.2 6.4 0.00 0.00 0.00 63 1021.4
20220813075333 17 249 3.2 6.4 0.00 0.00 0.00 63 1022.0
20220813074554 17 249 1.6 4.8 0.00 0.00 0.00 63 1021.6
20220813074312 17 249 1.6 4.8 0.00 0.00 0.00 63 1022.1
20220813073345 17 249 0.0 3.2 0.00 0.00 0.00 62 1022.1
20220813073058 17 249 0.0 6.4 0.00 0.00 0.00 62 1021.5
20220813072348 17 249 1.6 8.0 0.00 0.00 0.00 61 1022.2
20220813071547 17 232 0.0 8.0 0.00 0.00 0.00 61 1021.6
20220813071316 17 232 0.0 8.0 0.00 0.00 0.00 62 1022.2
20220813070317 17 204 0.0 4.8 0.00 0.00 0.00 62 1022.2
20220813070023 17 204 0.0 4.8 0.00 0.00 0.00 61 1021.5
20220813065351 17 204 1.6 6.4 0.00 0.00 0.00 61 1022.0
20220813064546 17 204 1.6 8.0 0.00 0.00 0.00 61 1021.5
20220813064347 17 204 3.2 8.0 0.00 0.00 0.00 62 1022.0
20220813063337 17 203 1.6 4.8 0.00 0.00 0.00 63 1022.1
20220813063049 17 203 1.6 6.4 0.00 0.00 0.00 63 1021.5
20220813062359 17 203 3.2 6.4 0.00 0.00 0.00 64 1022.0
20220813061646 17 203 1.6 4.8 0.00 0.00 0.00 64 1021.5
20220813061334 17 203 0.0 3.2 0.00 0.00 0.00 65 1022.1
20220813060311 17 203 3.2 6.4 0.00 0.00 0.00 64 1022.2
20220813060024 17 203 1.6 6.4 0.00 0.00 0.00 64 1021.7
20220813055329 17 203 1.6 4.8 0.00 0.00 0.00 65 1022.4
20220813054550 17 203 1.6 6.4 0.00 0.00 0.00 65 1021.8
20220813054326 17 203 1.6 6.4 0.00 0.00 0.00 65 1022.4
20220813053404 17 203 3.2 9.7 0.00 0.00 0.00 64 1022.4
20220813053052 17 203 1.6 9.7 0.00 0.00 0.00 64 1021.8
20220813052311 17 203 4.8 9.7 0.00 0.00 0.00 64 1022.4
20220813051535 17 202 3.2 9.7 0.00 0.00 0.00 65 1021.8
20220813051314 17 202 4.8 9.7 0.00 0.00 0.00 66 1022.3
20220813050413 17 193 4.8 11.3 0.00 0.00 0.00 67 1022.3
20220813050331 17 193 4.8 11.3 0.00 0.00 0.00 67 1022.3
20220813050034 17 194 4.8 11.3 0.00 0.00 0.00 67 1021.7
20220813045346 17 202 4.8 9.7 0.00 0.00 0.00 69 1022.4
20220813044517 16 200 1.6 8.0 0.00 0.00 0.00 71 1021.8
20220813044323 17 200 3.2 8.0 0.00 0.00 0.00 71 1022.4
20220813043316 17 200 1.6 8.0 0.00 0.00 0.00 71 1022.4
20220813043102 16 200 3.2 8.0 0.00 0.00 0.00 71 1021.8
20220813042356 17 201 3.2 8.0 0.00 0.00 0.00 72 1022.4
20220813041513 16 190 1.6 6.4 0.00 0.00 0.00 72 1021.7
20220813041351 17 190 3.2 6.4 0.00 0.00 0.00 72 1022.2
20220813040346 17 190 1.6 6.4 0.00 0.00 0.00 71 1022.0
20220813040125 17 190 1.6 8.0 0.00 0.00 0.00 70 1021.5
20220813035318 17 191 1.6 4.8 0.00 0.00 0.00 70 1022.1
20220813034556 17 191 0.0 4.8 0.00 0.00 0.00 69 1021.6
20220813034401 17 191 3.2 4.8 0.00 0.00 0.00 69 1022.3
20220813033337 17 191 1.6 8.0 0.00 0.00 0.00 68 1022.2
20220813033045 17 191 0.0 8.0 0.00 0.00 0.00 68 1021.7
20220813032412 18 190 4.8 9.7 0.00 0.00 0.00 67 1022.2
20220813031618 18 188 4.8 9.7 0.00 0.00 0.00 67 1021.6
20220813031328 18 171 1.6 6.4 0.00 0.00 0.00 66 1022.2
20220813030343 18 171 0.0 3.2 0.00 0.00 0.00 65 1022.1
20220813030027 18 171 0.0 3.2 0.00 0.00 0.00 65 1021.5
20220813025318 18 171 1.6 6.4 0.00 0.00 0.00 64 1022.1
20220813024525 18 171 0.0 4.8 0.00 0.00 0.00 64 1021.6
20220813024315 19 171 0.0 4.8 0.00 0.00 0.00 63 1022.1
20220813023326 19 171 0.0 6.4 0.00 0.00 0.00 61 1022.0
20220813023010 19 171 1.6 6.4 0.00 0.00 0.00 61 1021.5
20220813022409 20 182 0.0 0.0 0.00 0.00 0.00 59 1022.0
20220813021529 20 182 0.0 0.0 0.00 0.00 0.00 58 1021.3
20220813021322 20 182 0.0 0.0 0.00 0.00 0.00 58 1021.9
20220813020312 20 182 0.0 0.0 0.00 0.00 0.00 57 1021.8
20220813020012 20 182 0.0 0.0 0.00 0.00 0.00 56 1021.3
20220813015332 20 182 0.0 0.0 0.00 0.00 0.00 55 1021.8
20220813014525 20 182 0.0 3.2 0.00 0.00 0.00 54 1021.2
20220813014327 20 182 0.0 3.2 0.00 0.00 0.00 54 1021.8
20220813013337 21 182 0.0 3.2 0.00 0.00 0.00 53 1021.7
20220813013105 21 182 0.0 3.2 0.00 0.00 0.00 52 1021.2
20220813012313 21 182 0.0 0.0 0.00 0.00 0.00 51 1021.6
20220813011546 21 182 0.0 4.8 0.00 0.00 0.00 50 1021.0
20220813011314 21 182 0.0 4.8 0.00 0.00 0.00 49 1021.5
20220813010347 21 182 0.0 3.2 0.00 0.00 0.00 48 1021.5
20220813010011 21 182 0.0 4.8 0.00 0.00 0.00 48 1020.9
20220813005410 22 182 0.0 4.8 0.00 0.00 0.00 47 1021.6
20220813004546 22 182 0.0 1.6 0.00 0.00 0.00 46 1021.0
20220813004407 22 182 0.0 1.6 0.00 0.00 0.00 47 1021.6
20220813004324 22 182 0.0 1.6 0.00 0.00 0.00 47 1021.6
20220813003322 22 182 0.0 0.0 0.00 0.00 0.00 45 1021.7
20220813003058 22 182 0.0 1.6 0.00 0.00 0.00 44 1021.1
20220813002338 23 182 0.0 6.4 0.00 0.00 0.00 44 1021.6
20220813001521 22 182 0.0 4.8 0.00 0.00 0.00 43 1021.2
20220813001314 23 182 0.0 4.8 0.00 0.00 0.00 44 1021.7
20220813000351 23 182 0.0 6.4 0.00 0.00 0.00 43 1021.6
20220813000049 23 182 1.6 6.4 0.00 0.00 0.00 42 1021.1
20220812235340 23 197 0.0 0.0 0.00 0.00 0.00 41 1021.7
20220812234508 23 198 0.0 8.0 0.00 0.00 0.00 41 1021.2
20220812234356 24 198 0.0 8.0 0.00 0.00 0.00 41 1021.7
20220812234313 24 198 0.0 8.0 0.00 0.00 0.00 41 1021.7
20220812233358 23 141 0.0 4.8 0.00 0.00 0.00 42 1021.7
20220812233101 23 142 0.0 9.7 0.00 0.00 0.00 41 1021.2
20220812232413 23 171 3.2 11.3 0.00 0.00 0.00 41 1021.6
20220812232330 23 171 3.2 11.3 0.00 0.00 0.00 41 1021.6
20220812231511 23 154 0.0 6.4 0.00 0.00 0.00 41 1021.2
20220812231347 23 126 3.2 6.4 0.00 0.00 0.00 41 1021.7
20220812230344 24 149 3.2 9.7 0.00 0.00 0.00 39 1021.7
20220812230029 23 124 3.2 9.7 0.00 0.00 0.00 38 1021.3
20220812225342 24 137 3.2 8.0 0.00 0.00 0.00 37 1021.8
20220812224555 23 164 0.0 4.8 0.00 0.00 0.00 36 1021.3
20220812224322 24 164 0.0 9.7 0.00 0.00 0.00 36 1021.8
20220812223312 24 147 3.2 12.9 0.00 0.00 0.00 36 1021.9
20220812223056 23 129 3.2 12.9 0.00 0.00 0.00 37 1021.3
20220812222356 24 98 3.2 11.3 0.00 0.00 0.00 36 1021.8
20220812222314 24 98 3.2 11.3 0.00 0.00 0.00 36 1021.8
20220812221505 23 127 0.0 12.9 0.00 0.00 0.00 38 1021.3
20220812221331 24 133 0.0 12.9 0.00 0.00 0.00 39 1021.9
20220812220321 24 150 3.2 12.9 0.00 0.00 0.00 37 1022.2
20220812220050 24 162 4.8 12.9 0.00 0.00 0.00 37 1021.6
20220812215404 25 108 1.6 14.5 0.00 0.00 0.00 39 1022.2
20220812214607 24 84 0.0 11.3 0.00 0.00 0.00 38 1021.7
20220812214317 25 109 4.8 11.3 0.00 0.00 0.00 38 1022.4
20220812213335 25 146 4.8 14.5 0.00 0.00 0.00 37 1022.5
20220812213047 25 69 4.8 14.5 0.00 0.00 0.00 37 1021.9
20220812212330 25 54 1.6 8.0 0.00 0.00 0.00 36 1022.4
20220812211529 25 63 0.0 11.3 0.00 0.00 0.00 37 1022.0
20220812211329 25 61 1.6 11.3 0.00 0.00 0.00 38 1022.5
20220812210338 25 116 3.2 11.3 0.00 0.00 0.00 39 1022.5
20220812210044 24 69 4.8 11.3 0.00 0.00 0.00 39 1022.0
20220812205313 25 50 3.2 9.7 0.00 0.00 0.00 40 1022.5
20220812204536 24 46 1.6 14.5 0.00 0.00 0.00 39 1022.0
20220812204337 25 63 6.4 14.5 0.00 0.00 0.00 38 1022.7
20220812203348 25 35 3.2 16.1 0.00 0.00 0.00 38 1022.8
20220812203102 25 82 3.2 16.1 0.00 0.00 0.00 37 1022.3
20220812202323 25 9 3.2 12.9 0.00 0.00 0.00 38 1022.9
20220812201553 25 32 4.8 11.3 0.00 0.00 0.00 37 1022.4
20220812201339 25 37 0.0 12.9 0.00 0.00 0.00 38 1023.0
20220812200341 25 355 3.2 16.1 0.00 0.00 0.00 38 1023.0
20220812200047 25 30 4.8 16.1 0.00 0.00 0.00 38 1022.6
20220812195337 25 43 4.8 12.9 0.00 0.00 0.00 37 1023.1
20220812194544 25 351 1.6 16.1 0.00 0.00 0.00 39 1022.6
20220812194335 25 44 1.6 16.1 0.00 0.00 0.00 39 1023.1
20220812193324 25 25 4.8 14.5 0.00 0.00 0.00 38 1023.1
20220812193028 25 46 1.6 14.5 0.00 0.00 0.00 39 1022.7
20220812192341 25 38 1.6 8.0 0.00 0.00 0.00 41 1023.3
20220812191607 24 91 3.2 16.1 0.00 0.00 0.00 41 1022.9
20220812191338 24 26 1.6 16.1 0.00 0.00 0.00 42 1023.4
20220812190336 24 11 8.0 14.5 0.00 0.00 0.00 43 1023.6
20220812190010 23 37 3.2 12.9 0.00 0.00 0.00 40 1023.1
20220812185334 24 49 3.2 16.1 0.00 0.00 0.00 39 1023.7
20220812184551 23 42 4.8 14.5 0.00 0.00 0.00 37 1023.4
20220812184314 24 60 6.4 14.5 0.00 0.00 0.00 38 1024.0
20220812183415 24 57 1.6 17.7 0.00 0.00 0.00 43 1024.1
20220812183050 23 22 0.0 17.7 0.00 0.00 0.00 44 1023.7
20220812182348 24 46 3.2 12.9 0.00 0.00 0.00 46 1024.3
20220812181532 23 63 0.0 12.9 0.00 0.00 0.00 45 1023.8
20220812181325 23 63 3.2 12.9 0.00 0.00 0.00 45 1024.4
20220812180319 23 53 3.2 12.9 0.00 0.00 0.00 42 1024.6
20220812180045 23 360 1.6 12.9 0.00 0.00 0.00 46 1024.0
20220812175336 23 5 3.2 16.1 0.00 0.00 0.00 54 1024.5
20220812174536 23 70 8.0 16.1 0.00 0.00 0.00 55 1024.0
20220812174331 23 37 0.0 8.0 0.00 0.00 0.00 49 1024.6
20220812173341 23 355 4.8 14.5 0.00 0.00 0.00 60 1024.7
20220812173101 23 57 4.8 14.5 0.00 0.00 0.00 56 1024.2
20220812172337 23 355 3.2 12.9 0.00 0.00 0.00 64 1024.9
20220812171534 22 12 4.8 12.9 0.00 0.00 0.00 66 1024.5
20220812171313 22 24 4.8 12.9 0.00 0.00 0.00 66 1025.0
20220812170332 22 32 3.2 14.5 0.00 0.00 0.00 68 1025.1
20220812170109 22 355 3.2 14.5 0.00 0.00 0.00 68 1024.6
20220812165349 22 36 6.4 14.5 0.00 0.00 0.00 67 1025.2
20220812164523 22 38 3.2 12.9 0.00 0.00 0.00 66 1024.7
20220812164345 22 28 3.2 9.7 0.00 0.00 0.00 67 1025.2
20220812163401 22 15 3.2 14.5 0.00 0.00 0.00 69 1025.2
20220812163319 22 15 3.2 14.5 0.00 0.00 0.00 69 1025.2
20220812163010 22 29 4.8 14.5 0.00 0.00 0.00 69 1024.8
20220812162315 21 42 3.2 14.5 0.00 0.00 0.00 71 1025.3
20220812161504 21 349 0.0 11.3 0.00 0.00 0.00 71 1024.9
20220812161330 21 5 1.6 11.3 0.00 0.00 0.00 70 1025.4
20220812160329 21 44 1.6 14.5 0.00 0.00 0.00 70 1025.3
20220812160054 21 44 3.2 14.5 0.00 0.00 0.00 70 1024.9
20220812155320 21 37 4.8 9.7 0.00 0.00 0.00 70 1025.4
20220812154552 21 5 0.0 6.4 0.00 0.00 0.00 70 1025.0
20220812154316 21 332 3.2 9.7 0.00 0.00 0.00 70 1025.4